Regional Weather Roundup
Issued by NWS

Home | Current Version | Previous Version | Graphics & Text | Print | Product List | Glossary On
Versions: 1 2 3 4 5 6 7 8 9 10 11 12 13 14 15 16 17 18 19 20 21 22 23 24 25 26 27 28 29 30 31 32 33 34 35 36 37 38 39 40 41 42 43 44 45 46 47 48 49 50
000
ASUS43 KMKX 242211
RWRWI

WISCONSIN REGIONAL WEATHER ROUNDUP
NATIONAL WEATHER SERVICE MILWAUKEE/SULLIVAN WI
500 PM CDT SAT JUN 24 2017

NOTE: "FAIR" INDICATES FEW OR NO CLOUDS BELOW 12,000 FEET WITH NO
SIGNIFICANT WEATHER AND/OR OBSTRUCTIONS TO VISIBILITY.

WIZ001-002-006>008-014>016-023>028-242300-
NORTHWEST WISCONSIN

CITY           SKY/WX    TMP DP  RH WIND       PRES   REMARKS
SUPERIOR ARPT  NOT AVBL
ASHLAND        LGT RAIN  59  51  75 W12G17    29.94S
HAYWARD        LGT RAIN  56  50  80 N6        29.97R
SIREN          PTSUNNY   64  44  47 CALM      29.98S
CUMBERLAND     CLOUDY    61  43  51 W14G20    29.98F
RICE LAKE      CLOUDY    61  40  45 W15G22    30.00F
CHETEK         CLOUDY    56  45  65 W9        29.99F
LADYSMITH      CLOUDY    63  45  51 SW12G18   29.98S
EAU CLAIRE     CLOUDY    56  49  77 W13G18    30.00R
MENOMONIE      CLOUDY    55  47  73 NW15G21   30.02R
NEW RICHMOND   CLOUDY    58  45  62 W9        30.01F
OSCEOLA        PTSUNNY   64  48  56 W10G18    30.02F
$$

WIZ003>005-009-010-017-018-242300-
NORTH CENTRAL WISCONSIN

CITY           SKY/WX    TMP DP  RH WIND       PRES   REMARKS
MANITOWISH WTR CLOUDY    58  46  64 NW14G20   29.93S
ARBOR VITAE    PTSUNNY   62  48  59 NW10      29.93S
WOODRUFF       PTSUNNY   62  48  59 NW10      29.93S
RHINELANDER    PTSUNNY   62  51  67 W15       29.94S
EAGLE RIVER    LGT RAIN  55  52  91 W6        29.94S
LAND O LAKES   DRIZZLE   53  50  90 W6        29.95S
PHILLIPS       PTSUNNY   57  50  78 NW7       29.95S
TOMAHAWK       NOT AVBL
MEDFORD        CLOUDY    60  44  56 W13       29.96R
MERRILL        PTSUNNY   60  44  55 W17G26    29.95R
$$

WIZ029-030-035-036-043>047-242300-
CENTRAL WISCONSIN

CITY           SKY/WX    TMP DP  RH WIND       PRES   REMARKS
WAUSAU         CLOUDY    62  43  49 W17G23    29.94R
MOSINEE        PTSUNNY   64  45  48 W17       29.96S
MARSHFIELD     SUNNY     63  41  44 W16G23    29.95F
STEVENS POINT  MOSUNNY   65  41  42 W12G22    29.95F
WAUPACA        MOSUNNY   70  39  32 W10G22    29.94F
WAUTOMA        SUNNY     68  42  38 W23G29    29.96F
WISC RAPIDS    MOSUNNY   69  42  37 W14G22    29.97F
CAMP DOUGLAS   MOSUNNY   64  45  49 W14G24    29.98F
$$

WIZ011>013-019>022-031-037>040-048>050-242300-
NORTHEAST WISCONSIN

CITY           SKY/WX    TMP DP  RH WIND       PRES   REMARKS
ANTIGO         PTSUNNY   61  47  58 NW12      29.93S
SHAWANO        PTSUNNY   69  42  38 W7G17     29.92S
OCONTO         CLOUDY    66  47  50 NW7       29.90F
STURGEON BAY     N/A     61  54  77 N8          N/A
GREEN BAY      MOSUNNY   70  45  40 W17G29    29.92S
MANITOWOC      PTSUNNY   69  42  37 W18G24    29.92F
APPLETON       PTSUNNY   66  36  32 W20G26    29.93F
CLINTONVILLE   PTSUNNY   64  39  39 NW14G20   29.93S
OSHKOSH        MOSUNNY   66  42  41 W18G25    29.94S
$$

WIZ032>034-041-042-053>061-242300-
SOUTHWEST WISCONSIN

CITY           SKY/WX    TMP DP  RH WIND       PRES   REMARKS
LA CROSSE      PTSUNNY   64  53  67 S10       30.00F
SPARTA         CLOUDY    64  42  44 W12G24    30.02R
VIROQUA        CLOUDY    53  50  91 NW3       30.05R
BOSCOBEL       PTSUNNY   67  43  41 NW21G31   30.03S
PRAIRIE DU CHI RAIN      58  49  72 NW16G30   30.08R
PLATTEVILLE    MOSUNNY   71  44  37 W15G21    30.03F
$$

WIZ056-057-062-063-064-067-068-242300-
SOUTH CENTRAL WISCONSIN

CITY           SKY/WX    TMP DP  RH WIND       PRES   REMARKS
REEDSBURG      SUNNY     66  44  44 W13G21    29.99S
BARABOO/DELLS  PTSUNNY   66  41  40 W9G21     29.99S
LONE ROCK      MOSUNNY   70  44  39 W15       30.00F
MINERAL POINT  MOSUNNY   70  43  37 W15       30.02F
MADISON        MOSUNNY   68  44  42 NW8G20    29.98F
MIDDLETON      SUNNY     70  44  38 W15       30.00F
WATERTOWN      MOSUNNY   68  44  42 W16G26    29.98S
MONROE         SUNNY     70  39  32 W13G20    30.01F
JANESVILLE     MOSUNNY   72  39  30 NW20G29   30.00R
$$

WIZ051-052-058>065-066-070>072-242300-
SOUTHEAST WISCONSIN

CITY           SKY/WX    TMP DP  RH WIND       PRES   REMARKS
MILWAUKEE      MOSUNNY   72  47  40 W20       29.96S
WAUKESHA       PTSUNNY   66  46  48 W14G23    29.98S
MILWAUKEE/TIMM MOSUNNY   70  43  37 W20       29.98R
RACINE         PTSUNNY   70  47  43 NW14G20   29.98R
KENOSHA        PTSUNNY   71  47  42 W21G28    29.97S
FOND DU LAC    SUNNY     69  43  38 NW17G28   29.95S
SHEBOYGAN      PTSUNNY   67  48  50 W14G25    29.93S
WEST BEND      PTSUNNY   66  43  42 W14G22    29.96S
JUNEAU         MOSUNNY   67  42  41 W10G18    29.98S
$$

LSZ147-162-242300-
LAKE SUPERIOR

STATION/POSITION TIME  TEMP    WIND        PRES    WAVE
                       AIR SEA DIR/SP/G            HT/PER
                 (UTC) (F)     (DEG/KT/KT) (MB)    (FT/S)
W MID LAKE BUOY  2150   44 39  240/  8/  8 1013.1R   2/ 4
DEVILS ISLAND    2200   53     260/ 11/ 12 1013.6R
SAXON HARBOR     2140   61     270/  7/ 12 1013.2S
$$

LMZ867-665-643>646-242300-
LAKE MICHIGAN

STATION/POSITION TIME  TEMP    WIND        PRES    WAVE
                       AIR SEA DIR/SP/G            HT/PER
                 (UTC) (F)     (DEG/KT/KT) (MB)    (FT/S)
CHAMBERS ISLAND  2140   61     300/  5/  8 1012.5S
S GREEN BAY BUOY 2200   66     310/ 10/ 12 1012.8
N MID LAKE BUOY  2150   59 58  260/  8/ 10 1012.9R   1
NORTHPORT PIER   2140   60     300/  4/ 10 1012.5R
KEWAUNEE LAKESHO 2148   67     270/ 12/ 20 1012.6S
SHEBOYGAN LAKESH 2200   67     270/ 16/ 21 1013.2S
PORT WASHINGTON  2140   71     290/  9/ 16 1014.9S
ATWATER BUOY     2109   65 60  280/ 14/ 16 1014.7R
MILWAUKEE LAKESH 2150   68     310/ 13/ 18   N/A
S MID LAKE BUOY  2150   64 63  250/  2/  4 1014.7F   1/ 3
KENOSHA   LAKESH 2200   71     270/ 16/ 27 1014.2
$$

TC  - TEMPERATURE IN CELSIUS
VSB - VISIBILITY IN STATUTE MILES
WCI - WIND CHILL INDEX
HX  - HEAT INDEX





USA.gov is the U.S. government's official web portal to all federal, state and local government web resources and services.